[[{"header":{"parameterUnit":"m.s-1","parameterCategory":2,"la1":30.2991,"la2":30.254,"lo1":-89.0895,"lo2":-89.0444,"dy":0.0017,"dx":0.0017,"nx":28,"ny":28,"refTime":"2023-09-08T21:00:00:Z","depth":"0","parameterNumber":2,"parameterNumberName":"U-component_of_CURRENTS"},"data":[0,0,0,0,0,0,0,0,0,0,0,0,0,0,0,0,0,0,0,0,0,0,0,0,0,0,0,0,0,0,0,0,0,0,0,0,0,0,0,0,0,0,0,0,0,0,0,0,0,0,0,0,0,0,0,0,0,0,0.2208,0.2208,0,0.2176,0.2175,0.2175,0.2149,0.2148,0.2148,0.2148,0.2105,0.2104,0.2103,0,0,0,0,0,0,0,0,0,0,0,0,0,0.2264,0.2263,0.2208,0.2208,0.2207,0.2176,0.2175,0.2175,0.2149,0.2148,0.2148,0.2148,0.2105,0.2104,0.2103,0,0,0,0,0,0,0,0,0,0,0,0,0,0.2236,0.2263,0.2208,0.2191,0.2189,0.2176,0.2175,0.2175,0.2149,0.2148,0.2148,0.2148,0.2106,0.2104,0.2103,0.2102,0,0,0.2099,0.2098,0,0,0,0,0,0,0,0,0.2238,0.2234,0.2194,0.2192,0.219,0.2166,0.2179,0.215,0.2149,0.2164,0.2148,0.2147,0.2125,0.2122,0.2116,0.21,0.2098,0.2099,0.2098,0.2097,0.2097,0,0,0,0,0,0,0,0.224,0.2236,0.2195,0.2193,0.2191,0.219,0.2186,0.2174,0.2146,0.2162,0.216,0.2157,0.2124,0.2118,0.2115,0.2098,0.2099,0.2098,0.2097,0.2096,0.2073,0.2074,0,0,0,0,0,0,0.2244,0.2237,0.2196,0.2194,0.2214,0.2189,0.2184,0.2174,0.2147,0.2142,0.2158,0.2156,0.212,0.2117,0.2114,0.2127,0.2097,0.2096,0.2095,0.2073,0.2073,0.2074,0,0,0,0,0,0,0.2245,0.224,0.2197,0.2216,0.221,0.2189,0.2177,0.2173,0.2168,0.2143,0.2139,0.2156,0.212,0.2116,0.2103,0.2125,0.2095,0.2094,0.2073,0.2073,0.2074,0.2145,0,0,0,0,0,0,0.2246,0.224,0.2241,0.2216,0.2209,0.2204,0.2177,0.2173,0.2167,0.2164,0.2141,0.2136,0.2119,0.2105,0.2101,0.2122,0.2093,0.2073,0.2073,0.2073,0.2142,0.2147,0.2152,0,0,0,0,0,0.2248,0.2257,0.2241,0.2237,0.2208,0.2205,0.2202,0.2185,0.2167,0.2176,0.2149,0.2137,0.2105,0.2104,0.21,0.2121,0.2072,0.2073,0.2073,0.214,0.2146,0.2152,0,0,0,0,0,0,0.2286,0.2254,0.2237,0.2235,0.2225,0.2201,0.2209,0.2189,0.2174,0.2169,0.2138,0.2133,0.2137,0.2111,0.211,0.2113,0.2087,0.2087,0.2139,0.2145,0.215,0.2171,0.2092,0,0,0,0,0,0.2292,0.2285,0.226,0.2259,0.2257,0.223,0.2227,0.2212,0.2193,0.2186,0.2167,0.2144,0.2135,0.2125,0.2116,0.2111,0.2109,0.2121,0.2126,0.213,0.2143,0.2156,0.2164,0.2075,0.2075,0.2075,0,0,0.2302,0.2287,0.2281,0.2266,0.2255,0.2249,0.2228,0.2227,0.222,0.2184,0.2176,0.2167,0.2139,0.2142,0.214,0.2122,0.2154,0.2131,0.2135,0.2146,0.2158,0.2167,0.2175,0.2075,0.2075,0.2075,0,0,0.232,0.2311,0.2307,0.23,0.2287,0.2274,0.2274,0.2254,0.2249,0.2236,0.2216,0.222,0.2188,0.2188,0.2177,0.2201,0.2187,0.219,0.2227,0.2239,0.2248,0.2255,0.2268,0.2276,0.2184,0.2184,0.2184,0,0.2333,0.2317,0.231,0.2305,0.2296,0.2284,0.2276,0.2276,0.2253,0.2251,0.2242,0.2223,0.2215,0.2219,0.2236,0.2217,0.2216,0.221,0.2249,0.2256,0.2262,0.2273,0.2281,0.2188,0.2187,0.2187,0.2187,0,0.2336,0.2327,0.2332,0.2312,0.2311,0.2308,0.2299,0.2305,0.2294,0.2283,0.2294,0.2288,0.2273,0.228,0.2268,0.2305,0.2289,0.2264,0.2241,0.2276,0.2285,0.2292,0.2193,0.2191,0.219,0.219,0,0,0.2342,0.2332,0.233,0.2314,0.2308,0.23,0.2314,0.2312,0.2314,0.2317,0.2324,0.2338,0.234,0.233,0.2325,0.2349,0.2407,0.2331,0.233,0.2358,0.2437,0.2299,0.2293,0.2387,0.2389,0.239,0.2429,0,0.2338,0.2322,0.2324,0.2307,0.2292,0.2298,0.2306,0.2308,0.2317,0.2332,0.2349,0.2354,0.2354,0.2357,0.2385,0.2404,0.2427,0.2399,0.2388,0.2388,0.2271,0.2296,0.2173,0.2185,0.2435,0.2436,0.2437,0,0.2322,0.2314,0.2294,0.2282,0.2279,0.2277,0.2283,0.229,0.2323,0.2332,0.2356,0.2367,0.2415,0.2406,0.2459,0.2438,0.245,0.2464,0.2465,0.2316,0.2261,0.2188,0.2188,0.2134,0.2447,0.2447,0.2446,0,0.2291,0.2285,0.2264,0.2257,0.2254,0.2256,0.2263,0.2287,0.2286,0.234,0.2347,0.2397,0.2409,0.2452,0.2472,0.2475,0.2521,0.2517,0.2404,0.2394,0.2277,0.2253,0.2232,0.2556,0.2556,0.2556,0.2556,0,0.2265,0.2248,0.2248,0.223,0.221,0.2229,0.2221,0.2243,0.2276,0.2271,0.234,0.2344,0.2422,0.2446,0.2483,0.2447,0.2518,0.2419,0.2394,0.2294,0.2272,0.2206,0.2182,0.2557,0.2557,0.2557,0.2556,0,0.2221,0.2223,0.219,0.2188,0.2185,0.2168,0.217,0.2165,0.2217,0.2222,0.2238,0.2305,0.2336,0.2387,0.2449,0.242,0.2339,0.2397,0.2271,0.2227,0.2046,0.2029,0.1877,0.1835,0.2293,0.229,0.2287,0,0.2196,0.2173,0.2142,0.2107,0.2103,0.2088,0.207,0.2118,0.2116,0.2178,0.2171,0.2219,0.2227,0.2254,0.2235,0.2247,0.2211,0.211,0.2085,0.2016,0.1982,0.1908,0.1883,0.1978,0.1973,0.1969,0.1966,0,0.2135,0.2119,0.2079,0.2017,0.1984,0.1963,0.1956,0.1953,0.201,0.2024,0.2046,0.2074,0.2082,0.2024,0.2007,0.2002,0.1968,0.202,0.1995,0.1762,0.1638,0.159,0.1985,0.1929,0.1933,0.1935,0.1937,0.1939,0.2068,0.2016,0.1952,0.189,0.1859,0.1839,0.1808,0.1819,0.1817,0.1829,0.1902,0.1893,0.1857,0.1815,0.1783,0.1636,0.169,0.1586,0.1586,0.1531,0.1425,0.1719,0.159,0.1592,0.1593,0.1594,0.1596,0,0.1945,0.189,0.1827,0.1745,0.1696,0.1725,0.1713,0.1684,0.1658,0.1687,0.1694,0.1626,0.1535,0.1498,0.1345,0.1241,0.1217,0.1198,0.112,0.1134,0.1443,0.1363,0.1121,0.1121,0.1121,0.1121,0.1121,0.1121,0.1867,0.1752,0.1718,0.16,0.1564,0.1501,0.1493,0.1471,0.1478,0.1413,0.1361,0.1361,0.1304,0.1123,0.0976,0.0954,0.0907,0.0783,0.0855,0.1123,0.1162,0.1199,0.1121,0.0831,0.0831,0.0499,0.0497,0.0495]},{"header":{"parameterUnit":"m.s-1","parameterCategory":2,"la1":30.2991,"la2":30.254,"lo1":-89.0895,"lo2":-89.0444,"dy":0.0017,"dx":0.0017,"nx":28,"ny":28,"refTime":"2023-09-08T21:00:00:Z","depth":"0","parameterNumber":3,"parameterNumberName":"V-component_of_CURRENTS"},"data":[0,0,0,0,0,0,0,0,0,0,0,0,0,0,0,0,0,0,0,0,0,0,0,0,0,0,0,0,0,0,0,0,0,0,0,0,0,0,0,0,0,0,0,0,0,0,0,0,0,0,0,0,0,0,0,0,0,0,0.0067,0.0068,0,0.0068,0.0068,0.0068,0.006,0.006,0.006,0.006,0.0039,0.0039,0.0038,0,0,0,0,0,0,0,0,0,0,0,0,0,0.0045,0.0045,0.0067,0.0068,0.0068,0.0068,0.0068,0.0068,0.006,0.006,0.006,0.006,0.0039,0.0039,0.0038,0,0,0,0,0,0,0,0,0,0,0,0,0,0.0049,0.0045,0.0067,0.0065,0.0065,0.0068,0.0068,0.0068,0.006,0.006,0.006,0.006,0.004,0.0039,0.0038,0.0035,0,0,0.0036,0.0035,0,0,0,0,0,0,0,0,0.0049,0.005,0.0066,0.0066,0.0066,0.0066,0.0052,0.0056,0.006,0.006,0.006,0.006,0.0047,0.0046,0.0044,0.0034,0.0033,0.0036,0.0035,0.0035,0.0035,0,0,0,0,0,0,0,0.0049,0.005,0.0066,0.0066,0.0066,0.0059,0.006,0.0053,0.0052,0.006,0.006,0.0063,0.0047,0.0045,0.0043,0.0032,0.0036,0.0035,0.0035,0.0034,0.0025,0.0025,0,0,0,0,0,0,0.0053,0.005,0.0066,0.0066,0.0059,0.006,0.006,0.0064,0.0053,0.0052,0.0063,0.0063,0.0046,0.0044,0.0043,0.0044,0.0035,0.0034,0.0034,0.0025,0.0025,0.0026,0,0,0,0,0,0,0.0053,0.0055,0.0066,0.0059,0.006,0.0061,0.0065,0.0064,0.0065,0.0056,0.0054,0.0065,0.0046,0.0044,0.0042,0.0043,0.0034,0.0033,0.0025,0.0025,0.0025,0.0043,0,0,0,0,0,0,0.0052,0.0054,0.0057,0.0059,0.0061,0.0072,0.0065,0.0064,0.0067,0.0067,0.0056,0.0054,0.0046,0.0043,0.0041,0.0042,0.0032,0.0024,0.0025,0.0025,0.0042,0.0044,0.0045,0,0,0,0,0,0.0051,0.0055,0.0057,0.0059,0.0065,0.0073,0.0073,0.0071,0.0067,0.007,0.0064,0.0055,0.0044,0.0043,0.004,0.0041,0.0024,0.0025,0.0025,0.0041,0.0043,0.0045,0,0,0,0,0,0,0.0043,0.0055,0.0057,0.0063,0.007,0.0072,0.0074,0.0074,0.0071,0.007,0.0058,0.0056,0.0052,0.0046,0.0045,0.004,0.0032,0.0032,0.0045,0.0047,0.0049,0.0067,0.0032,0,0,0,0,0,0.0044,0.0052,0.0061,0.0067,0.007,0.0072,0.0075,0.0077,0.0077,0.0075,0.0067,0.0059,0.0052,0.005,0.0042,0.0042,0.0047,0.004,0.0042,0.0043,0.0057,0.0062,0.0065,0.0027,0.0027,0.0027,0,0,0.0043,0.005,0.0055,0.0066,0.0069,0.0082,0.0073,0.0082,0.009,0.0073,0.0076,0.0063,0.0052,0.005,0.0048,0.0046,0.0057,0.0044,0.0045,0.0058,0.0063,0.0066,0.007,0.0028,0.0028,0.0027,0,0,0.0051,0.0051,0.0065,0.0073,0.0086,0.0087,0.0092,0.0097,0.0096,0.0098,0.0086,0.008,0.0068,0.0064,0.0059,0.0067,0.0063,0.0059,0.0085,0.0089,0.0092,0.0095,0.011,0.0115,0.0063,0.0063,0.0063,0,0.0049,0.0069,0.0069,0.0085,0.0097,0.0092,0.0112,0.011,0.0112,0.012,0.0102,0.0095,0.0076,0.0085,0.0082,0.0071,0.0077,0.0077,0.0092,0.0095,0.0098,0.0112,0.0117,0.0064,0.0064,0.0064,0.0064,0,0.0073,0.0088,0.0096,0.0117,0.0126,0.0142,0.0145,0.0149,0.0143,0.0146,0.0149,0.0125,0.0126,0.011,0.0095,0.0107,0.0108,0.009,0.0088,0.0103,0.0117,0.0121,0.0065,0.0065,0.0065,0.0064,0,0,0.0079,0.0108,0.0113,0.0136,0.0148,0.0164,0.0172,0.0191,0.0211,0.0194,0.022,0.0187,0.0178,0.0173,0.0151,0.0149,0.0161,0.0129,0.0129,0.0148,0.0182,0.0176,0.018,0.0145,0.0146,0.0147,0.0186,0,0.0102,0.0147,0.015,0.0191,0.0216,0.0215,0.023,0.0243,0.0244,0.0264,0.0241,0.0252,0.0201,0.0204,0.019,0.0171,0.0173,0.0153,0.0164,0.0164,0.0159,0.0185,0.022,0.0257,0.019,0.0191,0.0191,0,0.0132,0.016,0.0209,0.0248,0.0258,0.0278,0.0314,0.0327,0.0344,0.0345,0.0345,0.033,0.0323,0.0277,0.0255,0.0245,0.0219,0.0199,0.02,0.0194,0.0166,0.0231,0.0268,0.0256,0.0198,0.0197,0.0197,0,0.016,0.0202,0.0247,0.0262,0.03,0.0322,0.0339,0.036,0.0387,0.0406,0.0431,0.041,0.0412,0.0373,0.0313,0.0291,0.0297,0.0261,0.0236,0.0235,0.0269,0.027,0.03,0.0256,0.0256,0.0256,0.0256,0,0.0193,0.0228,0.0269,0.0298,0.0356,0.0364,0.0421,0.0433,0.0465,0.0516,0.048,0.0514,0.0435,0.042,0.0357,0.0316,0.033,0.0256,0.0248,0.0275,0.0276,0.0269,0.0249,0.0258,0.0257,0.0257,0.0257,0,0.0223,0.0246,0.0305,0.0357,0.0375,0.0421,0.0477,0.0516,0.0537,0.0603,0.0616,0.0604,0.0585,0.0509,0.0455,0.0382,0.0339,0.032,0.0361,0.0356,0.0306,0.0284,0.0316,0.0315,0.0306,0.0306,0.0306,0,0.0244,0.0281,0.0356,0.0392,0.0419,0.048,0.0522,0.0555,0.06,0.0665,0.0705,0.0704,0.0713,0.063,0.0517,0.0429,0.0379,0.0383,0.0336,0.0325,0.0296,0.0284,0.028,0.0393,0.0393,0.0394,0.0395,0,0.0292,0.0322,0.0374,0.0443,0.0498,0.0562,0.0623,0.0673,0.0722,0.0782,0.0853,0.087,0.0797,0.0725,0.0587,0.0511,0.0392,0.0393,0.0378,0.0369,0.0366,0.0354,0.0348,0.0401,0.04,0.04,0.0399,0.0399,0.0333,0.0374,0.0435,0.05,0.0561,0.0633,0.069,0.076,0.0849,0.0939,0.0956,0.1004,0.0904,0.0727,0.0623,0.0469,0.0446,0.0412,0.039,0.0382,0.0374,0.0381,0.0417,0.0416,0.0416,0.0416,0.0415,0,0.0377,0.0417,0.0479,0.0559,0.062,0.0645,0.0747,0.0809,0.0919,0.1011,0.1074,0.108,0.0966,0.0813,0.0611,0.0499,0.0452,0.0431,0.0435,0.043,0.0445,0.044,0.0487,0.0487,0.0487,0.0487,0.0487,0.0488,0.0402,0.046,0.0484,0.0587,0.064,0.0727,0.0787,0.0889,0.0976,0.109,0.114,0.116,0.1081,0.0778,0.0582,0.0518,0.0461,0.0436,0.0396,0.0412,0.0408,0.0405,0.0396,0.0434,0.0434,0.0414,0.0414,0.0413]}],[{"header":{"parameterUnit":"m.s-1","parameterCategory":2,"la1":30.2991,"la2":30.254,"lo1":-89.0895,"lo2":-89.0444,"dy":0.0017,"dx":0.0017,"nx":28,"ny":28,"refTime":"2023-09-08T21:00:00:Z","depth":"2","parameterNumber":2,"parameterNumberName":"U-component_of_CURRENTS"},"data":[0,0,0,0,0,0,0,0,0,0,0,0,0,0,0,0,0,0,0,0,0,0,0,0,0,0,0,0,0,0,0,0,0,0,0,0,0,0,0,0,0,0,0,0,0,0,0,0,0,0,0,0,0,0,0,0,0,0,0.1584,0.1585,0,0.1611,0.1611,0.1611,0.1618,0.1618,0.1618,0.1619,0.1603,0.1602,0.1601,0,0,0,0,0,0,0,0,0,0,0,0,0,0.158,0.1579,0.1584,0.1585,0.1585,0.1611,0.1611,0.1611,0.1618,0.1618,0.1618,0.1619,0.1603,0.1602,0.1601,0,0,0,0,0,0,0,0,0,0,0,0,0,0.1587,0.1579,0.1584,0.1596,0.1597,0.1611,0.1611,0.1611,0.1618,0.1618,0.1618,0.1619,0.1603,0.1602,0.1601,0.1587,0,0,0.1598,0.1597,0,0,0,0,0,0,0,0,0.1586,0.1586,0.1593,0.1595,0.1597,0.1616,0.1604,0.1602,0.1618,0.1605,0.1619,0.1619,0.1606,0.1605,0.1602,0.1586,0.1585,0.1598,0.1597,0.1597,0.1596,0,0,0,0,0,0,0,0.1586,0.1586,0.159,0.1594,0.1596,0.1614,0.1615,0.1604,0.1598,0.1606,0.1608,0.1618,0.1606,0.1603,0.1602,0.1585,0.1598,0.1597,0.1596,0.1596,0.1626,0.1627,0,0,0,0,0,0,0.1589,0.1585,0.1589,0.1591,0.1598,0.1614,0.1615,0.1605,0.1599,0.16,0.1618,0.1619,0.1605,0.1603,0.1602,0.1636,0.1597,0.1596,0.1595,0.1624,0.1626,0.1627,0,0,0,0,0,0,0.1589,0.1589,0.1588,0.1594,0.1596,0.1614,0.1603,0.1606,0.1609,0.161,0.1609,0.1621,0.1605,0.1603,0.1603,0.1633,0.1595,0.1594,0.1622,0.1625,0.1627,0.167,0,0,0,0,0,0,0.1588,0.1588,0.1586,0.1593,0.1596,0.1604,0.1604,0.1606,0.1618,0.1619,0.1612,0.1611,0.1605,0.1605,0.1602,0.1631,0.1594,0.1621,0.1623,0.1626,0.1667,0.1674,0.1679,0,0,0,0,0,0.1587,0.1593,0.1585,0.1587,0.159,0.1605,0.1607,0.1619,0.1617,0.1622,0.162,0.1611,0.1621,0.1604,0.1601,0.163,0.1619,0.1623,0.1626,0.1664,0.1672,0.1679,0,0,0,0,0,0,0.1593,0.1595,0.1586,0.1591,0.1598,0.1608,0.162,0.162,0.1621,0.1626,0.1614,0.1612,0.1634,0.1621,0.1604,0.165,0.1625,0.1627,0.1655,0.1663,0.1669,0.1676,0.1593,0,0,0,0,0,0.1591,0.1595,0.1596,0.1602,0.1602,0.1606,0.1615,0.1624,0.1628,0.1629,0.1625,0.1629,0.1643,0.1642,0.165,0.1657,0.1654,0.168,0.1686,0.1691,0.1697,0.1714,0.1722,0.1638,0.1638,0.1638,0,0,0.1597,0.16,0.1602,0.1604,0.1607,0.1614,0.1611,0.1632,0.1645,0.1626,0.1639,0.1648,0.1651,0.1675,0.1683,0.1665,0.1715,0.1695,0.1699,0.1702,0.1718,0.1726,0.1733,0.164,0.1639,0.1639,0,0,0.1612,0.1607,0.161,0.1616,0.163,0.1634,0.1639,0.1648,0.1658,0.1671,0.1675,0.1697,0.1699,0.1716,0.1723,0.1763,0.1751,0.1773,0.18,0.1817,0.1824,0.183,0.184,0.1846,0.1769,0.1769,0.177,0,0.1621,0.1614,0.1617,0.1623,0.1633,0.164,0.1647,0.166,0.1673,0.1684,0.1684,0.1718,0.1724,0.1757,0.1785,0.1777,0.1781,0.177,0.1824,0.183,0.1835,0.1844,0.1851,0.1772,0.1772,0.1771,0.1771,0,0.1627,0.1629,0.1636,0.1637,0.165,0.1663,0.1679,0.1694,0.1707,0.1721,0.176,0.1772,0.1793,0.1809,0.1811,0.1859,0.1848,0.1833,0.1802,0.1846,0.1853,0.1859,0.1776,0.1775,0.1774,0.1773,0,0,0.1626,0.1635,0.1639,0.1639,0.1658,0.167,0.1697,0.1718,0.1742,0.1766,0.1794,0.1838,0.1851,0.1862,0.1872,0.1893,0.1943,0.1885,0.1885,0.189,0.1979,0.1883,0.188,0.1936,0.1938,0.1939,0.1969,0,0.1625,0.1638,0.1645,0.1661,0.1663,0.1682,0.171,0.1741,0.1767,0.18,0.183,0.1864,0.1869,0.1889,0.1915,0.1944,0.1961,0.1936,0.1941,0.1941,0.1846,0.1885,0.1716,0.1722,0.1975,0.1976,0.1977,0,0.1616,0.1631,0.1642,0.1668,0.1672,0.1689,0.1731,0.1757,0.1809,0.1836,0.1873,0.1892,0.1945,0.1934,0.1994,0.1978,0.1986,0.1997,0.1998,0.1896,0.1856,0.1719,0.1723,0.1986,0.1986,0.1985,0.1984,0,0.1603,0.1624,0.1633,0.1641,0.1676,0.1692,0.1717,0.1769,0.1794,0.1857,0.1881,0.1937,0.1965,0.1996,0.2019,0.2015,0.2069,0.2057,0.1972,0.1966,0.1816,0.1793,0.2085,0.2085,0.2085,0.2085,0.2085,0,0.1586,0.1601,0.1628,0.1635,0.166,0.1692,0.1725,0.1764,0.1817,0.1843,0.1898,0.1918,0.1983,0.201,0.2033,0.2019,0.2075,0.1985,0.1969,0.1826,0.1805,0.2026,0.2019,0.2086,0.2086,0.2086,0.2085,0,0.1566,0.1583,0.1598,0.1636,0.1648,0.1669,0.1712,0.1734,0.1799,0.1833,0.185,0.1917,0.1952,0.199,0.204,0.2015,0.2024,0.1996,0.182,0.1782,0.191,0.1905,0.1918,0.1915,0.1913,0.1911,0.1909,0,0.1553,0.1551,0.1589,0.1592,0.1607,0.1638,0.1653,0.1718,0.1733,0.1813,0.1817,0.1869,0.1875,0.1911,0.1884,0.1885,0.1956,0.1716,0.1672,0.1911,0.1895,0.1894,0.1892,0.1501,0.1496,0.1492,0.1489,0,0.1523,0.1536,0.1552,0.1555,0.1564,0.1577,0.1601,0.1613,0.168,0.1704,0.173,0.1746,0.1761,0.1671,0.166,0.1644,0.1707,0.163,0.1932,0.1559,0.1517,0.1501,0.1513,0.1452,0.1456,0.1458,0.146,0.1462,0.15,0.1497,0.1503,0.1498,0.1507,0.1502,0.1489,0.1507,0.1517,0.1525,0.1595,0.1558,0.1553,0.1443,0.1388,0.1344,0.1474,0.1407,0.142,0.1438,0.1373,0.1328,0.1216,0.1218,0.122,0.1222,0.1223,0,0.1446,0.1445,0.1437,0.1425,0.1398,0.1433,0.1431,0.1396,0.1362,0.1381,0.1379,0.1239,0.1152,0.116,0.1019,0.1,0.1009,0.0965,0.0963,0.0999,0.1032,0.0948,0.0677,0.0676,0.0674,0.0673,0,0,0.1421,0.1393,0.1378,0.131,0.1301,0.1251,0.1237,0.1197,0.1183,0.1119,0.107,0.1129,0.113,0.0903,0.0853,0.074,0.0877,0.071,0.1146,0.1182,0.1213,0.1279,0.1189,0,0,0,0,0]},{"header":{"parameterUnit":"m.s-1","parameterCategory":2,"la1":30.2991,"la2":30.254,"lo1":-89.0895,"lo2":-89.0444,"dy":0.0017,"dx":0.0017,"nx":28,"ny":28,"refTime":"2023-09-08T21:00:00:Z","depth":"2","parameterNumber":3,"parameterNumberName":"V-component_of_CURRENTS"},"data":[0,0,0,0,0,0,0,0,0,0,0,0,0,0,0,0,0,0,0,0,0,0,0,0,0,0,0,0,0,0,0,0,0,0,0,0,0,0,0,0,0,0,0,0,0,0,0,0,0,0,0,0,0,0,0,0,0,0,0.0232,0.0232,0,0.0226,0.0226,0.0226,0.0214,0.0214,0.0214,0.0213,0.0196,0.0196,0.0196,0,0,0,0,0,0,0,0,0,0,0,0,0,0.021,0.021,0.0232,0.0232,0.0232,0.0226,0.0226,0.0226,0.0214,0.0214,0.0214,0.0213,0.0196,0.0196,0.0196,0,0,0,0,0,0,0,0,0,0,0,0,0,0.0213,0.0211,0.0232,0.0225,0.0225,0.0226,0.0226,0.0226,0.0214,0.0214,0.0214,0.0213,0.0197,0.0196,0.0196,0.0199,0,0,0.0195,0.0194,0,0,0,0,0,0,0,0,0.0213,0.0214,0.0226,0.0226,0.0225,0.0221,0.0212,0.0217,0.0214,0.0218,0.0213,0.0213,0.0204,0.0203,0.0202,0.0198,0.0198,0.0194,0.0194,0.0194,0.0194,0,0,0,0,0,0,0,0.0213,0.0214,0.0229,0.0226,0.0226,0.0215,0.0216,0.0213,0.0212,0.0217,0.0217,0.0217,0.0204,0.0203,0.0202,0.0197,0.0195,0.0194,0.0194,0.0194,0.0182,0.0182,0,0,0,0,0,0,0.0216,0.0214,0.0229,0.0229,0.0219,0.0216,0.0216,0.0222,0.0212,0.0211,0.0217,0.0216,0.0203,0.0202,0.0201,0.0202,0.0194,0.0194,0.0193,0.0182,0.0182,0.0182,0,0,0,0,0,0,0.0216,0.0218,0.0229,0.0221,0.0222,0.0217,0.0224,0.0222,0.0222,0.0212,0.021,0.0219,0.0203,0.0202,0.0199,0.0202,0.0194,0.0193,0.0182,0.0182,0.0182,0.0207,0,0,0,0,0,0,0.0215,0.0218,0.0222,0.0222,0.0223,0.0235,0.0224,0.0222,0.0223,0.0222,0.0213,0.0211,0.0203,0.02,0.0199,0.0201,0.0193,0.0183,0.0182,0.0182,0.0206,0.0207,0.0209,0,0,0,0,0,0.0215,0.0224,0.0222,0.0224,0.0229,0.0235,0.0235,0.023,0.0224,0.0228,0.0219,0.0211,0.0198,0.02,0.0199,0.0201,0.0183,0.0182,0.0182,0.0205,0.0207,0.0209,0,0,0,0,0,0,0.0213,0.0223,0.0221,0.0232,0.0235,0.0234,0.0237,0.0233,0.0229,0.0226,0.0215,0.0213,0.0209,0.0202,0.0204,0.0195,0.0188,0.0187,0.0206,0.0207,0.0208,0.0224,0.0193,0,0,0,0,0,0.0216,0.0227,0.0231,0.0239,0.0243,0.024,0.0241,0.0238,0.0235,0.0233,0.0225,0.0215,0.0208,0.0206,0.0197,0.0198,0.0195,0.0196,0.0197,0.0199,0.021,0.0206,0.0208,0.0182,0.0182,0.0182,0,0,0.0217,0.0224,0.0229,0.024,0.0242,0.0251,0.024,0.0245,0.025,0.0232,0.0234,0.022,0.0208,0.0205,0.0203,0.0201,0.0203,0.0199,0.02,0.021,0.0206,0.0209,0.0211,0.0182,0.0182,0.0182,0,0,0.0229,0.0233,0.0248,0.0253,0.0259,0.0259,0.0262,0.0262,0.0259,0.0259,0.0244,0.0237,0.0225,0.0219,0.0215,0.022,0.0209,0.021,0.0233,0.0229,0.0232,0.0234,0.023,0.0231,0.0213,0.0213,0.0213,0,0.0229,0.025,0.0252,0.0266,0.0273,0.0265,0.028,0.0277,0.0273,0.0276,0.0262,0.0249,0.0235,0.0239,0.0235,0.0225,0.0219,0.0229,0.0232,0.0234,0.0236,0.0231,0.0233,0.0214,0.0214,0.0213,0.0213,0,0.0255,0.0268,0.0278,0.0295,0.0301,0.0313,0.0312,0.0314,0.0307,0.0303,0.0302,0.0281,0.0276,0.0264,0.0251,0.0256,0.0246,0.0234,0.0231,0.0241,0.0234,0.0236,0.0215,0.0215,0.0215,0.0214,0,0,0.0263,0.0292,0.0294,0.031,0.0319,0.0329,0.0338,0.035,0.0362,0.0345,0.036,0.0336,0.0322,0.0316,0.0295,0.029,0.0289,0.0268,0.0267,0.027,0.028,0.0275,0.0276,0.0276,0.0276,0.0277,0.0269,0,0.0284,0.0321,0.0327,0.0356,0.0376,0.0373,0.0385,0.039,0.0388,0.0397,0.0378,0.0379,0.0342,0.0339,0.0327,0.0302,0.0294,0.0293,0.0266,0.0265,0.0265,0.0278,0.029,0.0285,0.027,0.027,0.0271,0,0.031,0.0332,0.0369,0.0397,0.0405,0.0417,0.0442,0.0452,0.0458,0.0456,0.0451,0.0433,0.0423,0.0389,0.0356,0.0355,0.0321,0.0299,0.0298,0.0289,0.0263,0.0273,0.0287,0.0272,0.0272,0.0272,0.0272,0,0.0327,0.0361,0.0395,0.0404,0.0432,0.0447,0.0459,0.0471,0.0491,0.0498,0.0513,0.0487,0.0483,0.0441,0.0384,0.0371,0.0349,0.0325,0.0289,0.0288,0.0293,0.0292,0.0304,0.0304,0.0304,0.0304,0.0304,0,0.0352,0.0376,0.0406,0.0424,0.0463,0.0471,0.0509,0.0517,0.054,0.0575,0.0545,0.0564,0.0496,0.047,0.041,0.0358,0.0366,0.0303,0.029,0.0301,0.0301,0.0284,0.0282,0.0304,0.0304,0.0304,0.0304,0,0.0368,0.0388,0.0426,0.0461,0.0474,0.0501,0.0545,0.0574,0.0589,0.0636,0.0643,0.0627,0.0597,0.0527,0.0462,0.0399,0.0346,0.0323,0.0339,0.0329,0.028,0.028,0.0288,0.0288,0.0288,0.0288,0.0288,0,0.0381,0.0405,0.0452,0.0475,0.0492,0.0533,0.0566,0.0596,0.0633,0.0679,0.0708,0.0692,0.0688,0.059,0.0487,0.0393,0.0362,0.0328,0.0304,0.0294,0.0281,0.028,0.0279,0.0316,0.0317,0.0317,0.0317,0,0.0404,0.042,0.045,0.0498,0.0537,0.0587,0.0636,0.0676,0.0723,0.0765,0.0812,0.0815,0.0731,0.0641,0.0506,0.0434,0.0343,0.0327,0.0322,0.0318,0.032,0.0307,0.0306,0.0318,0.0318,0.0318,0.0318,0.0318,0.0415,0.0436,0.0474,0.0521,0.0569,0.0633,0.068,0.0739,0.081,0.0874,0.0879,0.0881,0.078,0.0611,0.0494,0.0361,0.037,0.0307,0.0307,0.0307,0.0311,0.0313,0.031,0.031,0.031,0.031,0.0309,0,0.0423,0.0449,0.0491,0.055,0.0604,0.0631,0.0722,0.0773,0.086,0.0909,0.0946,0.0845,0.0753,0.0626,0.0446,0.0338,0.032,0.0284,0.029,0.0291,0.0291,0.0294,0.0288,0.0288,0.0287,0.0287,0,0,0.0426,0.0457,0.0479,0.0564,0.0612,0.0692,0.0747,0.0828,0.0884,0.0927,0.0927,0.0929,0.0793,0.065,0.0509,0.0401,0.0363,0.0369,0.0401,0.0427,0.0428,0.0324,0.0331,0,0,0,0,0]}],[{"header":{"parameterUnit":"m.s-1","parameterCategory":2,"la1":30.2991,"la2":30.254,"lo1":-89.0895,"lo2":-89.0444,"dy":0.0017,"dx":0.0017,"nx":28,"ny":28,"refTime":"2023-09-08T21:00:00:Z","depth":"4","parameterNumber":2,"parameterNumberName":"U-component_of_CURRENTS"},"data":[0,0,0,0,0,0,0,0,0,0,0,0,0,0,0,0,0,0,0,0,0,0,0,0,0,0,0,0,0,0,0,0,0,0,0,0,0,0,0,0,0,0,0,0,0,0,0,0,0,0,0,0,0,0,0,0,0,0,0.0842,0.0842,0,0.0871,0.0871,0.0872,0.0907,0.0907,0.0907,0.0908,0.0947,0.0948,0.0949,0,0,0,0,0,0,0,0,0,0,0,0,0,0.0824,0.0825,0.0842,0.0842,0.0842,0.087,0.0871,0.0872,0.0907,0.0907,0.0907,0.0908,0.0947,0.0948,0.0949,0,0,0,0,0,0,0,0,0,0,0,0,0,0.0842,0.0825,0.0842,0.0862,0.0864,0.087,0.0871,0.0872,0.0906,0.0907,0.0908,0.0908,0.0947,0.0948,0.0949,0.0944,0,0,0.0952,0.0952,0,0,0,0,0,0,0,0,0.0841,0.0843,0.0859,0.086,0.0863,0.0884,0.0879,0.0896,0.0906,0.0892,0.0908,0.0908,0.0925,0.0928,0.0935,0.0946,0.0948,0.0952,0.0953,0.0953,0.0953,0,0,0,0,0,0,0,0.084,0.0842,0.0855,0.0859,0.0861,0.0871,0.0875,0.0883,0.0907,0.0894,0.0896,0.0896,0.0927,0.0934,0.0936,0.0948,0.0952,0.0953,0.0954,0.0954,0.1015,0.1016,0,0,0,0,0,0,0.0831,0.0841,0.0854,0.0856,0.0851,0.0871,0.0875,0.0878,0.0907,0.0911,0.0895,0.0897,0.0932,0.0935,0.0938,0.098,0.0953,0.0954,0.0955,0.1014,0.1015,0.1016,0,0,0,0,0,0,0.0831,0.0833,0.0853,0.0847,0.085,0.087,0.0874,0.0878,0.0904,0.0907,0.0912,0.0918,0.0932,0.0936,0.0964,0.098,0.0955,0.0956,0.1013,0.1014,0.1015,0.1035,0,0,0,0,0,0,0.083,0.0832,0.0843,0.0847,0.085,0.0869,0.0873,0.0878,0.0901,0.0904,0.0928,0.0931,0.0933,0.0963,0.0965,0.0981,0.0956,0.1011,0.1013,0.1015,0.1034,0.1037,0.1041,0,0,0,0,0,0.083,0.0832,0.0843,0.0845,0.0861,0.087,0.0873,0.089,0.0901,0.0915,0.0934,0.0932,0.0976,0.0964,0.0967,0.0984,0.101,0.1013,0.1015,0.1032,0.1037,0.1041,0,0,0,0,0,0,0.0828,0.0836,0.0848,0.0854,0.0869,0.0875,0.0889,0.09,0.0926,0.0938,0.0943,0.0947,0.098,0.098,0.0966,0.1008,0.0993,0.0996,0.1006,0.101,0.1013,0.1024,0.0957,0,0,0,0,0,0.0832,0.0841,0.085,0.0859,0.0868,0.0885,0.0894,0.0908,0.0924,0.0938,0.0952,0.097,0.0988,0.0998,0.1014,0.1032,0.1041,0.1046,0.105,0.1053,0.1064,0.1091,0.1098,0.1023,0.1023,0.1023,0,0,0.0834,0.0839,0.0846,0.0861,0.0876,0.089,0.0893,0.0915,0.0933,0.0937,0.0972,0.0986,0.0997,0.1023,0.1037,0.1026,0.1078,0.1055,0.1058,0.1068,0.1094,0.1102,0.1108,0.1025,0.1024,0.1024,0,0,0.0835,0.085,0.086,0.0874,0.0898,0.0906,0.0917,0.0937,0.0957,0.0988,0.0997,0.1022,0.1047,0.1056,0.1063,0.1096,0.1099,0.1103,0.1126,0.1152,0.1158,0.1164,0.1178,0.1185,0.1101,0.1101,0.1101,0,0.0843,0.0852,0.0865,0.0879,0.0894,0.0915,0.0933,0.0952,0.098,0.0999,0.1006,0.1057,0.1063,0.1091,0.1105,0.1104,0.112,0.1105,0.1156,0.1162,0.1167,0.1181,0.1188,0.1102,0.1102,0.1102,0.1101,0,0.0848,0.0865,0.0872,0.0899,0.0917,0.0936,0.096,0.0986,0.1013,0.1032,0.1079,0.1094,0.1125,0.1128,0.1129,0.117,0.1168,0.1159,0.1143,0.1176,0.1188,0.1195,0.1104,0.1103,0.1103,0.1102,0,0,0.0841,0.0871,0.0877,0.0894,0.0932,0.0944,0.098,0.1013,0.1042,0.1078,0.1118,0.1149,0.1169,0.1179,0.1183,0.1203,0.1248,0.1203,0.1204,0.1214,0.1307,0.1201,0.1199,0.1253,0.1255,0.1256,0.1297,0,0.0847,0.087,0.0888,0.0919,0.0935,0.0969,0.0997,0.1035,0.1072,0.1114,0.1144,0.1186,0.1184,0.1208,0.123,0.1248,0.127,0.1238,0.1277,0.1279,0.1177,0.1204,0.1261,0.1303,0.1304,0.1306,0.1307,0,0.0847,0.0862,0.0893,0.0931,0.0943,0.097,0.1026,0.1056,0.1115,0.1149,0.1199,0.1227,0.1272,0.1265,0.1318,0.1302,0.1315,0.1322,0.1323,0.1224,0.1186,0.1265,0.132,0.1319,0.1318,0.1317,0.1316,0,0.0829,0.0866,0.0891,0.0905,0.0952,0.0982,0.1014,0.1073,0.1107,0.1182,0.1219,0.1274,0.1312,0.1343,0.1364,0.1353,0.1414,0.1394,0.1311,0.1303,0.1377,0.1371,0.1438,0.1438,0.1438,0.1438,0.1438,0,0.0816,0.0836,0.0888,0.09,0.0942,0.0981,0.1035,0.1076,0.1141,0.1181,0.1242,0.1276,0.1339,0.1375,0.1387,0.1368,0.1435,0.1322,0.1309,0.1384,0.1378,0.1382,0.1375,0.1439,0.1439,0.1439,0.1438,0,0.0788,0.0819,0.0854,0.0912,0.0935,0.097,0.1044,0.1074,0.1143,0.1199,0.1228,0.1299,0.1338,0.138,0.1427,0.1382,0.1382,0.1361,0.1443,0.1432,0.1249,0.1242,0.1265,0.1262,0.1259,0.1257,0.1255,0,0.0769,0.0785,0.0862,0.0889,0.0922,0.0977,0.101,0.1077,0.1105,0.1195,0.121,0.128,0.1316,0.1296,0.1344,0.1353,0.1336,0.1324,0.1281,0.1247,0.1233,0.1231,0.1229,0.125,0.1249,0.1249,0.1248,0,0.0741,0.0785,0.0819,0.0872,0.0916,0.0949,0.0999,0.1011,0.108,0.1153,0.1164,0.1177,0.1214,0.1233,0.1251,0.1254,0.1322,0.1294,0.1299,0.1258,0.1229,0.1217,0.1218,0.1238,0.124,0.124,0.1241,0,0.0734,0.0757,0.081,0.0846,0.0894,0.09,0.0934,0.0953,0.0983,0.107,0.1071,0.1138,0.1204,0.1182,0.1199,0.1191,0.1166,0.1117,0.1131,0.1142,0.108,0.1023,0.0963,0,0,0,0,0,0.0722,0.0737,0.0772,0.0801,0.0839,0.0859,0.0911,0.094,0.1004,0.0983,0.1021,0.1047,0.1054,0.1085,0.1053,0.1143,0.1175,0.1098,0.1128,0.1184,0.1195,0.1131,0,0,0,0,0,0,0.0714,0.0755,0.0758,0.0746,0.075,0.0775,0.0804,0.0849,0.0835,0.0909,0.0922,0.0974,0.1004,0.1066,0.1031,0.1041,0.1033,0.1139,0.1136,0.1177,0.1187,0.1197,0.1134,0,0,0,0,0]},{"header":{"parameterUnit":"m.s-1","parameterCategory":2,"la1":30.2991,"la2":30.254,"lo1":-89.0895,"lo2":-89.0444,"dy":0.0017,"dx":0.0017,"nx":28,"ny":28,"refTime":"2023-09-08T21:00:00:Z","depth":"4","parameterNumber":3,"parameterNumberName":"V-component_of_CURRENTS"},"data":[0,0,0,0,0,0,0,0,0,0,0,0,0,0,0,0,0,0,0,0,0,0,0,0,0,0,0,0,0,0,0,0,0,0,0,0,0,0,0,0,0,0,0,0,0,0,0,0,0,0,0,0,0,0,0,0,0,0,0.0253,0.0253,0,0.0261,0.0261,0.0261,0.0262,0.0262,0.0262,0.0262,0.0264,0.0264,0.0264,0,0,0,0,0,0,0,0,0,0,0,0,0,0.0225,0.0226,0.0253,0.0253,0.0253,0.0261,0.0261,0.0261,0.0262,0.0262,0.0262,0.0262,0.0264,0.0264,0.0264,0,0,0,0,0,0,0,0,0,0,0,0,0,0.0235,0.0226,0.0253,0.0255,0.0256,0.0261,0.0261,0.0261,0.0262,0.0262,0.0262,0.0262,0.0264,0.0264,0.0264,0.0264,0,0,0.0264,0.0264,0,0,0,0,0,0,0,0,0.0234,0.0236,0.0255,0.0255,0.0256,0.0261,0.0252,0.0262,0.0262,0.0259,0.0262,0.0262,0.0263,0.0263,0.0263,0.0264,0.0264,0.0264,0.0264,0.0264,0.0264,0,0,0,0,0,0,0,0.0234,0.0235,0.0255,0.0255,0.0255,0.0252,0.0253,0.0253,0.026,0.0259,0.0259,0.0262,0.0263,0.0263,0.0263,0.0264,0.0264,0.0264,0.0264,0.0264,0.0276,0.0277,0,0,0,0,0,0,0.0235,0.0235,0.0255,0.0255,0.0246,0.0252,0.0254,0.0259,0.026,0.0261,0.0262,0.0262,0.0263,0.0263,0.0263,0.0281,0.0264,0.0264,0.0264,0.0276,0.0276,0.0277,0,0,0,0,0,0,0.0235,0.0237,0.0254,0.0246,0.0248,0.0253,0.0258,0.0259,0.0263,0.0262,0.0262,0.0266,0.0263,0.0263,0.0269,0.028,0.0264,0.0264,0.0276,0.0276,0.0277,0.0304,0,0,0,0,0,0,0.0234,0.0237,0.0242,0.0246,0.0248,0.0263,0.0258,0.0259,0.0265,0.0265,0.0266,0.0266,0.0263,0.0269,0.0269,0.028,0.0264,0.0275,0.0276,0.0276,0.0302,0.0305,0.0307,0,0,0,0,0,0.0233,0.0244,0.0242,0.0244,0.0255,0.0264,0.0265,0.0267,0.0265,0.027,0.027,0.0266,0.0272,0.0269,0.0269,0.028,0.0275,0.0276,0.0276,0.0301,0.0304,0.0307,0,0,0,0,0,0,0.0234,0.0245,0.0243,0.0256,0.0261,0.0264,0.0271,0.027,0.0274,0.0274,0.027,0.027,0.0279,0.0274,0.0271,0.0285,0.0273,0.0274,0.0292,0.0295,0.0297,0.0301,0.0264,0,0,0,0,0,0.0236,0.0248,0.0253,0.0263,0.0266,0.0268,0.0272,0.0273,0.0276,0.0278,0.0278,0.0278,0.0281,0.0284,0.0284,0.0292,0.0279,0.0299,0.0301,0.0303,0.0306,0.0292,0.0293,0.0279,0.0279,0.0279,0,0,0.0238,0.0247,0.0253,0.0265,0.0268,0.0277,0.0271,0.028,0.0289,0.0278,0.0289,0.0286,0.0284,0.0294,0.0298,0.0293,0.03,0.0304,0.0306,0.0307,0.0292,0.0294,0.0295,0.0279,0.0279,0.0279,0,0,0.0252,0.0258,0.0272,0.0277,0.0286,0.0288,0.0292,0.0296,0.03,0.0308,0.0303,0.0307,0.031,0.0313,0.0315,0.033,0.0312,0.0329,0.0346,0.0333,0.0334,0.0335,0.0318,0.0317,0.0331,0.0332,0.0332,0,0.0254,0.0272,0.0276,0.0289,0.0297,0.0294,0.0307,0.0311,0.0316,0.0322,0.0316,0.0322,0.0321,0.0334,0.034,0.0337,0.0321,0.0337,0.0336,0.0336,0.0337,0.0319,0.0318,0.0333,0.0333,0.0333,0.0332,0,0.0275,0.0289,0.0298,0.0314,0.0322,0.0335,0.0339,0.0347,0.0349,0.035,0.0359,0.0355,0.0358,0.036,0.0356,0.0362,0.0347,0.034,0.0329,0.034,0.0321,0.0319,0.0335,0.0334,0.0334,0.0334,0,0,0.0282,0.0308,0.0312,0.0324,0.0338,0.0348,0.0364,0.0377,0.0388,0.0387,0.0398,0.0404,0.0395,0.0396,0.0389,0.038,0.0371,0.0363,0.0361,0.0347,0.0335,0.0325,0.0322,0.036,0.036,0.0359,0.0321,0,0.0296,0.0327,0.0336,0.0363,0.0377,0.0383,0.0398,0.0409,0.0414,0.0422,0.0417,0.0423,0.041,0.0413,0.0402,0.0381,0.0367,0.0382,0.0327,0.0325,0.0315,0.032,0.0359,0.0319,0.0319,0.0319,0.0318,0,0.0312,0.0332,0.0363,0.039,0.0397,0.0412,0.0436,0.045,0.0459,0.0462,0.0462,0.0452,0.0448,0.0431,0.0395,0.0403,0.0372,0.0351,0.0348,0.0329,0.0312,0.0306,0.0314,0.0315,0.0315,0.0315,0.0315,0,0.0317,0.035,0.0378,0.0387,0.0416,0.0433,0.0448,0.0463,0.048,0.0487,0.0495,0.0479,0.0476,0.0436,0.0395,0.0392,0.0347,0.0337,0.0296,0.0295,0.0303,0.0302,0.0305,0.0305,0.0305,0.0305,0.0305,0,0.0329,0.0351,0.0384,0.0399,0.0431,0.0446,0.0477,0.0489,0.0509,0.0531,0.0516,0.0522,0.0476,0.0446,0.04,0.0344,0.0349,0.0299,0.0285,0.0315,0.0316,0.0301,0.0301,0.0304,0.0304,0.0304,0.0304,0,0.0329,0.0353,0.0384,0.042,0.0435,0.0457,0.0499,0.052,0.0537,0.0564,0.0568,0.0555,0.0519,0.0467,0.0403,0.0356,0.0301,0.0278,0.0314,0.0303,0.0253,0.0255,0.0226,0.0226,0.0225,0.0224,0.0224,0,0.0332,0.035,0.0396,0.0415,0.0435,0.0472,0.0499,0.0532,0.0556,0.0584,0.0596,0.0574,0.0556,0.0458,0.04,0.0308,0.0292,0.0253,0.0252,0.0257,0.0246,0.0249,0.0251,0.0223,0.0223,0.0223,0.0223,0,0.0332,0.035,0.0374,0.0416,0.0451,0.0492,0.0533,0.0554,0.0594,0.061,0.0614,0.0572,0.0531,0.0457,0.0387,0.032,0.0274,0.0247,0.0248,0.0247,0.0253,0.0243,0.0246,0.0221,0.0221,0.0221,0.0221,0,0.0327,0.034,0.0373,0.0411,0.0457,0.0502,0.0526,0.0559,0.0588,0.062,0.0619,0.0582,0.0562,0.0464,0.04,0.0335,0.0313,0.0275,0.0274,0.0275,0.0301,0.0316,0.0293,0,0,0,0,0,0.0317,0.0333,0.0364,0.0409,0.0458,0.049,0.0546,0.0569,0.061,0.0612,0.0617,0.0581,0.0495,0.046,0.0392,0.0383,0.0297,0.0299,0.0252,0.021,0.0213,0.0233,0,0,0,0,0,0,0.0309,0.0335,0.0356,0.0407,0.0438,0.0496,0.0536,0.0565,0.0566,0.0593,0.055,0.0543,0.0462,0.0532,0.0384,0.0367,0.0322,0.0267,0.0264,0.0209,0.0211,0.0213,0.0235,0,0,0,0,0]}]]